TimeMST,TemperatureF,Dew PointF,Humidity,Sea Level PressureIn,VisibilityMPH,Wind Direction,Wind SpeedMPH,Gust SpeedMPH,PrecipitationIn,Events,Conditions,WindDirDegrees,DateUTC
12:51 AM,10.9,8.1,88,29.97,-9999.0,South,3.5,-,N/A,,Unknown,170,2013-03-08 07:51:00
1:51 AM,5.0,3.0,92,29.98,-9999.0,SSE,4.6,-,N/A,,Unknown,150,2013-03-08 08:51:00
2:51 AM,3.0,1.0,91,29.98,-9999.0,SSE,3.5,-,N/A,,Unknown,160,2013-03-08 09:51:00
3:51 AM,1.9,-0.9,88,29.98,-9999.0,Calm,Calm,-,N/A,,Unknown,0,2013-03-08 10:51:00
4:51 AM,-0.0,-2.9,88,29.99,-9999.0,SSE,3.5,-,N/A,,Unknown,150,2013-03-08 11:51:00
5:51 AM,3.0,-0.0,87,29.98,-9999.0,East,5.8,-,N/A,,Unknown,100,2013-03-08 12:51:00
6:51 AM,1.0,-2.9,83,30.01,-9999.0,Calm,Calm,-,N/A,,Unknown,0,2013-03-08 13:51:00
7:51 AM,-0.9,-4.0,87,30.05,-9999.0,Calm,Calm,-,N/A,,Unknown,0,2013-03-08 14:51:00
8:51 AM,7.0,3.0,84,30.00,-9999.0,ENE,4.6,-,N/A,,Unknown,70,2013-03-08 15:51:00
9:51 AM,10.0,3.9,76,29.99,-9999.0,Calm,Calm,-,N/A,,Unknown,0,2013-03-08 16:51:00
10:51 AM,15.1,7.0,70,29.96,-9999.0,Calm,Calm,-,N/A,,Unknown,0,2013-03-08 17:51:00
11:51 AM,24.1,10.0,55,29.94,-9999.0,Calm,Calm,-,N/A,,Unknown,0,2013-03-08 18:51:00
12:51 PM,30.0,12.0,47,29.88,-9999.0,Calm,Calm,-,N/A,,Unknown,0,2013-03-08 19:51:00
1:51 PM,30.9,12.9,47,29.88,-9999.0,NNW,3.5,-,N/A,,Unknown,340,2013-03-08 20:51:00
2:51 PM,36.0,14.0,41,29.85,-9999.0,NNW,4.6,-,N/A,,Unknown,330,2013-03-08 21:51:00
3:51 PM,37.9,14.0,38,29.85,-9999.0,NNW,3.5,-,N/A,,Unknown,330,2013-03-08 22:51:00
4:51 PM,39.9,12.0,32,29.84,-9999.0,Calm,Calm,-,N/A,,Unknown,0,2013-03-08 23:51:00
5:51 PM,30.9,15.1,52,29.88,-9999.0,Calm,Calm,-,N/A,,Unknown,0,2013-03-09 00:51:00
6:51 PM,28.0,12.9,53,29.92,-9999.0,Calm,Calm,-,N/A,,Unknown,0,2013-03-09 01:51:00
7:51 PM,27.0,12.9,56,29.96,-9999.0,Calm,Calm,-,N/A,,Unknown,0,2013-03-09 02:51:00
8:51 PM,23.0,12.0,63,29.97,-9999.0,Calm,Calm,-,N/A,,Unknown,0,2013-03-09 03:51:00
9:51 PM,19.0,10.0,68,29.99,-9999.0,Calm,Calm,-,N/A,,Unknown,0,2013-03-09 04:51:00
10:51 PM,17.1,10.0,74,29.99,-9999.0,Calm,Calm,-,N/A,,Unknown,0,2013-03-09 05:51:00
11:51 PM,17.1,10.9,77,29.96,-9999.0,Calm,Calm,-,N/A,,Unknown,0,2013-03-09 06:51:00